| time (UTC) | temp C | wind direction | speed KPH | gust KPH | rain 1hr cm | rain 24hr cm | rain mn cm | humidity % | barometer mb |
| 20260904183504 | 14 | 333 | 1.6 | 4.8 | 0.00 | 0.81 | 0.38 | 87 | 1013.4 |
| 20260904183004 | 15 | 12 | 1.6 | 3.2 | 0.00 | 0.81 | 0.38 | 87 | 1013.4 |
| 20260904182504 | 15 | 23 | 1.6 | 3.2 | 0.00 | 0.84 | 0.38 | 87 | 1013.4 |
| 20260904182005 | 14 | 331 | 1.6 | 3.2 | 0.00 | 0.84 | 0.38 | 88 | 1013.3 |
| 20260904181504 | 14 | 21 | 3.2 | 3.2 | 0.00 | 0.84 | 0.38 | 88 | 1013.2 |
| 20260904181004 | 14 | 16 | 1.6 | 3.2 | 0.00 | 0.84 | 0.38 | 88 | 1013.2 |
| 20260904175005 | 14 | 309 | 3.2 | 4.8 | 0.00 | 0.84 | 0.38 | 89 | 1013.0 |
| 20260904174504 | 13 | 0 | 1.6 | 3.2 | 0.00 | 0.84 | 0.38 | 90 | 1013.0 |
| 20260904174004 | 13 | 3 | 1.6 | 4.8 | 0.00 | 0.84 | 0.38 | 90 | 1013.0 |
| 20260904173504 | 13 | 16 | 3.2 | 4.8 | 0.03 | 0.84 | 0.38 | 90 | 1013.0 |
| 20260904173004 | 13 | 296 | 3.2 | 4.8 | 0.03 | 0.84 | 0.38 | 90 | 1012.9 |
| 20260904172504 | 13 | 334 | 1.6 | 3.2 | 0.03 | 0.84 | 0.38 | 90 | 1013.0 |
| 20260904172004 | 13 | 325 | 1.6 | 3.2 | 0.03 | 0.84 | 0.38 | 91 | 1013.0 |
| 20260904171504 | 13 | 323 | 1.6 | 3.2 | 0.03 | 0.84 | 0.38 | 91 | 1012.9 |
| 20260904171004 | 13 | 334 | 1.6 | 3.2 | 0.03 | 0.84 | 0.38 | 91 | 1012.8 |
| 20260904170504 | 13 | 304 | 1.6 | 3.2 | 0.03 | 0.84 | 0.38 | 91 | 1012.9 |
| 20260904170004 | 13 | 318 | 1.6 | 3.2 | 0.03 | 0.84 | 0.38 | 91 | 1012.9 |
| 20260904165505 | 12 | 336 | 1.6 | 3.2 | 0.03 | 0.86 | 0.38 | 91 | 1012.9 |
| 20260904165005 | 12 | 331 | 3.2 | 3.2 | 0.03 | 0.86 | 0.38 | 91 | 1012.9 |
| 20260904164504 | 12 | 351 | 1.6 | 3.2 | 0.03 | 0.86 | 0.38 | 91 | 1012.8 |
| 20260904164004 | 12 | 0 | 1.6 | 3.2 | 0.03 | 0.86 | 0.38 | 91 | 1012.7 |
| 20260904163004 | 12 | 0 | 0.0 | 3.2 | 0.00 | 0.84 | 0.36 | 91 | 1012.9 |
| 20260904162504 | 12 | 0 | 1.6 | 3.2 | 0.00 | 0.84 | 0.36 | 91 | 1012.8 |
| 20260904162005 | 12 | 353 | 1.6 | 3.2 | 0.00 | 0.84 | 0.36 | 91 | 1012.7 |
| 20260904161005 | 12 | 235 | 0.0 | 3.2 | 0.00 | 0.84 | 0.36 | 91 | 1012.7 |
| 20260904160504 | 12 | 235 | 0.0 | 3.2 | 0.00 | 0.84 | 0.36 | 91 | 1012.6 |
| 20260904160005 | 12 | 236 | 0.0 | 3.2 | 0.00 | 0.84 | 0.36 | 91 | 1012.6 |
| 20260904155504 | 12 | 236 | 1.6 | 1.6 | 0.00 | 0.84 | 0.36 | 91 | 1012.6 |
| 20260904155005 | 12 | 236 | 0.0 | 3.2 | 0.00 | 0.84 | 0.36 | 91 | 1012.6 |
| 20260904154505 | 12 | 236 | 0.0 | 3.2 | 0.00 | 0.84 | 0.36 | 91 | 1012.6 |
| 20260904154005 | 12 | 236 | 0.0 | 3.2 | 0.00 | 0.84 | 0.36 | 91 | 1012.6 |
| 20260904153504 | 12 | 236 | 0.0 | 1.6 | 0.00 | 0.84 | 0.36 | 91 | 1012.6 |
| 20260904153005 | 12 | 236 | 0.0 | 3.2 | 0.00 | 0.84 | 0.36 | 91 | 1012.5 |
| 20260904152504 | 12 | 236 | 1.6 | 3.2 | 0.00 | 0.84 | 0.36 | 91 | 1012.4 |
| 20260904152004 | 12 | 236 | 1.6 | 1.6 | 0.00 | 0.86 | 0.36 | 91 | 1012.4 |
| 20260904151005 | 12 | 314 | 0.0 | 1.6 | 0.00 | 0.89 | 0.36 | 91 | 1012.3 |
| 20260904150504 | 12 | 315 | 0.0 | 3.2 | 0.00 | 0.91 | 0.36 | 91 | 1012.2 |
| 20260904150005 | 12 | 315 | 1.6 | 3.2 | 0.00 | 0.94 | 0.36 | 91 | 1012.1 |
| 20260904145505 | 12 | 315 | 0.0 | 3.2 | 0.00 | 0.97 | 0.36 | 91 | 1012.0 |
| 20260904144504 | 12 | 315 | 1.6 | 3.2 | 0.00 | 0.99 | 0.36 | 91 | 1011.9 |
| 20260904144004 | 12 | 331 | 0.0 | 0.0 | 0.00 | 0.99 | 0.36 | 91 | 1011.9 |
| 20260904143004 | 12 | 331 | 0.0 | 3.2 | 0.00 | 1.02 | 0.36 | 91 | 1011.8 |
| 20260904141504 | 12 | 300 | 0.0 | 1.6 | 0.05 | 1.04 | 0.36 | 91 | 1011.7 |
| 20260904140004 | 12 | 300 | 1.6 | 3.2 | 0.10 | 1.07 | 0.36 | 91 | 1011.5 |
| 20260904135505 | 12 | 300 | 0.0 | 3.2 | 0.10 | 1.07 | 0.36 | 91 | 1011.4 |
| 20260904135004 | 12 | 300 | 0.0 | 3.2 | 0.10 | 1.07 | 0.36 | 91 | 1011.4 |
| 20260904134504 | 12 | 327 | 0.0 | 3.2 | 0.13 | 1.09 | 0.36 | 91 | 1011.3 |
| 20260904134005 | 12 | 331 | 0.0 | 3.2 | 0.15 | 1.12 | 0.36 | 91 | 1011.3 |
| 20260904133004 | 12 | 5 | 1.6 | 3.2 | 0.18 | 1.12 | 0.36 | 91 | 1011.2 |
| 20260904132504 | 12 | 254 | 0.0 | 3.2 | 0.18 | 1.12 | 0.33 | 91 | 1011.3 |
| 20260904132005 | 12 | 254 | 1.6 | 3.2 | 0.18 | 1.17 | 0.30 | 91 | 1011.3 |
| 20260904131504 | 12 | 351 | 0.0 | 3.2 | 0.20 | 1.22 | 0.30 | 91 | 1011.2 |
| 20260904130004 | 12 | 9 | 1.6 | 3.2 | 0.20 | 1.17 | 0.25 | 91 | 1011.1 |
| 20260904125004 | 12 | 18 | 1.6 | 3.2 | 0.23 | 1.17 | 0.25 | 91 | 1011.0 |
| 20260904124504 | 12 | 18 | 1.6 | 3.2 | 0.20 | 1.14 | 0.23 | 91 | 1011.0 |
| 20260904124004 | 12 | 18 | 1.6 | 3.2 | 0.18 | 1.12 | 0.20 | 91 | 1011.1 |
| 20260904123005 | 12 | 18 | 1.6 | 3.2 | 0.15 | 1.22 | 0.18 | 91 | 1010.9 |
| 20260904122005 | 12 | 18 | 0.0 | 0.0 | 0.10 | 1.19 | 0.13 | 91 | 1010.9 |
| 20260904121004 | 12 | 18 | 0.0 | 0.0 | 0.05 | 1.17 | 0.08 | 91 | 1010.9 |
| 20260904120504 | 12 | 18 | 0.0 | 0.0 | 0.03 | 1.17 | 0.05 | 91 | 1010.9 |
| 20260904120004 | 12 | 18 | 0.0 | 1.6 | 0.05 | 1.19 | 0.05 | 91 | 1010.9 |
| 20260904115505 | 12 | 18 | 0.0 | 1.6 | 0.03 | 1.17 | 0.03 | 91 | 1010.8 |
| 20260904115004 | 12 | 18 | 0.0 | 3.2 | 0.03 | 1.19 | 0.03 | 91 | 1010.8 |
| 20260904114504 | 12 | 18 | 1.6 | 3.2 | 0.03 | 1.19 | 0.03 | 91 | 1010.7 |
| 20260904114004 | 12 | 18 | 1.6 | 3.2 | 0.03 | 1.22 | 0.03 | 91 | 1010.7 |
| 20260904113504 | 12 | 18 | 1.6 | 3.2 | 0.03 | 1.22 | 0.03 | 91 | 1010.6 |
| 20260904113004 | 12 | 17 | 1.6 | 3.2 | 0.03 | 1.24 | 0.03 | 90 | 1010.6 |
| 20260904112504 | 12 | 219 | 0.0 | 3.2 | 0.03 | 1.24 | 0.03 | 90 | 1010.6 |
| 20260904112004 | 12 | 219 | 0.0 | 3.2 | 0.03 | 1.24 | 0.03 | 90 | 1010.5 |
| 20260904111505 | 11 | 219 | 0.0 | 1.6 | 0.03 | 1.24 | 0.03 | 90 | 1010.5 |
| 20260904111004 | 11 | 219 | 0.0 | 1.6 | 0.03 | 1.24 | 0.03 | 90 | 1010.5 |
| 20260904110004 | 11 | 219 | 0.0 | 0.0 | 0.00 | 1.22 | 0.00 | 90 | 1010.5 |
| 20260904105504 | 11 | 219 | 0.0 | 3.2 | 0.00 | 1.22 | 0.00 | 90 | 1010.4 |
| 20260904105004 | 11 | 219 | 1.6 | 1.6 | 0.00 | 1.22 | 0.00 | 90 | 1010.4 |
| 20260904104504 | 11 | 219 | 0.0 | 3.2 | 0.00 | 1.22 | 0.00 | 90 | 1010.4 |
| 20260904104004 | 11 | 219 | 0.0 | 0.0 | 0.00 | 1.22 | 0.00 | 90 | 1010.4 |
| 20260904103505 | 11 | 219 | 0.0 | 3.2 | 0.00 | 1.22 | 0.00 | 90 | 1010.3 |
| 20260904103005 | 11 | 219 | 0.0 | 3.2 | 0.00 | 1.22 | 0.00 | 90 | 1010.3 |
| 20260904102504 | 11 | 219 | 0.0 | 3.2 | 0.00 | 1.22 | 0.00 | 90 | 1010.3 |
| 20260904102004 | 11 | 219 | 1.6 | 3.2 | 0.00 | 1.22 | 0.00 | 90 | 1010.3 |
| 20260904101504 | 11 | 219 | 1.6 | 1.6 | 0.00 | 1.22 | 0.00 | 90 | 1010.4 |
| 20260904101004 | 11 | 219 | 1.6 | 3.2 | 0.00 | 1.22 | 0.00 | 90 | 1010.3 |
| 20260904100504 | 11 | 196 | 1.6 | 3.2 | 0.00 | 1.22 | 0.00 | 90 | 1010.3 |
| 20260904100004 | 11 | 242 | 1.6 | 1.6 | 0.00 | 1.22 | 0.00 | 90 | 1010.3 |
| 20260904095504 | 11 | 242 | 1.6 | 3.2 | 0.00 | 1.22 | 0.00 | 90 | 1010.2 |
| 20260904095004 | 11 | 242 | 0.0 | 3.2 | 0.00 | 1.22 | 0.00 | 90 | 1010.1 |
| 20260904094504 | 11 | 242 | 1.6 | 3.2 | 0.00 | 1.22 | 0.00 | 90 | 1010.1 |
| 20260904094004 | 11 | 242 | 0.0 | 3.2 | 0.00 | 1.22 | 0.00 | 90 | 1010.0 |
| 20260904093504 | 11 | 242 | 0.0 | 3.2 | 0.00 | 1.22 | 0.00 | 90 | 1010.0 |
| 20260904093005 | 12 | 242 | 0.0 | 3.2 | 0.00 | 1.22 | 0.00 | 90 | 1010.0 |
| 20260904092504 | 12 | 242 | 1.6 | 1.6 | 0.00 | 1.22 | 0.00 | 90 | 1009.9 |
| 20260904092005 | 12 | 242 | 1.6 | 3.2 | 0.00 | 1.22 | 0.00 | 90 | 1009.9 |
| 20260904091504 | 12 | 242 | 0.0 | 3.2 | 0.00 | 1.22 | 0.00 | 90 | 1009.9 |
| 20260904091004 | 12 | 241 | 1.6 | 1.6 | 0.00 | 1.22 | 0.00 | 90 | 1009.9 |
| 20260904090504 | 12 | 253 | 1.6 | 1.6 | 0.00 | 1.22 | 0.00 | 90 | 1010.0 |
| 20260904090004 | 12 | 264 | 1.6 | 3.2 | 0.00 | 1.22 | 0.00 | 90 | 1010.0 |
| 20260904085504 | 12 | 317 | 0.0 | 1.6 | 0.00 | 1.22 | 0.00 | 89 | 1010.0 |
| 20260904085004 | 12 | 242 | 0.0 | 0.0 | 0.00 | 1.22 | 0.00 | 90 | 1010.0 |
| 20260904083504 | 12 | 0 | 0.0 | 3.2 | 0.00 | 1.22 | 0.00 | 89 | 1009.9 |
| 20260904083005 | 12 | 335 | 1.6 | 3.2 | 0.00 | 1.22 | 0.00 | 89 | 1010.0 |
| 20260904081504 | 12 | 0 | 3.2 | 3.2 | 0.00 | 1.22 | 0.00 | 89 | 1010.0 |
| 20260904081004 | 12 | 224 | 0.0 | 3.2 | 0.00 | 1.22 | 0.00 | 89 | 1010.0 |
| 20260904080504 | 12 | 244 | 1.6 | 3.2 | 0.00 | 1.22 | 0.00 | 89 | 1010.0 |
| 20260904075004 | 13 | 0 | 1.6 | 1.6 | 0.00 | 1.22 | 0.00 | 89 | 1009.9 |
| 20260904074504 | 13 | 26 | 0.0 | 1.6 | 0.00 | 1.22 | 0.00 | 89 | 1010.0 |
| 20260904074004 | 13 | 27 | 0.0 | 0.0 | 0.00 | 1.22 | 0.00 | 89 | 1009.9 |
| 20260904072504 | 13 | 0 | 0.0 | 1.6 | 0.00 | 1.22 | 0.00 | 89 | 1009.9 |
| 20260904072005 | 13 | 28 | 0.0 | 3.2 | 0.00 | 1.22 | 0.00 | 89 | 1009.9 |
| 20260904071505 | 13 | 27 | 0.0 | 3.2 | 0.00 | 1.22 | 0.00 | 89 | 1009.9 |
| 20260904071004 | 13 | 0 | 1.6 | 1.6 | 0.00 | 1.22 | 0.00 | 89 | 1009.9 |
| 20260904070504 | 13 | 0 | 3.2 | 3.2 | 0.00 | 1.22 | 0.00 | 90 | 1009.9 |
| 20260904070004 | 12 | 0 | 1.6 | 3.2 | 0.00 | 1.22 | 0.00 | 90 | 1009.8 |
| 20260904065504 | 12 | 236 | 0.0 | 0.0 | 0.00 | 1.22 | 1.22 | 90 | 1009.8 |
| 20260904065004 | 12 | 236 | 0.0 | 0.0 | 0.00 | 1.22 | 1.22 | 89 | 1009.8 |
| 20260904064504 | 12 | 236 | 0.0 | 0.0 | 0.00 | 1.22 | 1.22 | 90 | 1009.8 |
| 20260904064004 | 12 | 236 | 0.0 | 0.0 | 0.00 | 1.22 | 1.22 | 89 | 1009.8 |
| 20260904063504 | 12 | 236 | 0.0 | 0.0 | 0.00 | 1.22 | 1.22 | 89 | 1009.9 |
| 20260904062504 | 12 | 236 | 0.0 | 0.0 | 0.00 | 1.22 | 1.22 | 89 | 1009.9 |
| 20260904062004 | 12 | 236 | 0.0 | 0.0 | 0.00 | 1.22 | 1.22 | 89 | 1009.9 |
| 20260904061504 | 12 | 236 | 0.0 | 3.2 | 0.00 | 1.22 | 1.22 | 89 | 1009.9 |
| 20260904061004 | 12 | 0 | 0.0 | 0.0 | 0.00 | 1.22 | 1.22 | 89 | 1010.0 |
| 20260904055503 | 12 | 0 | 0.0 | 3.2 | 0.00 | 1.22 | 1.22 | 89 | 1009.9 |
| 20260904055004 | 13 | 0 | 0.0 | 1.6 | 0.00 | 1.22 | 1.22 | 88 | 1009.9 |
| 20260904054504 | 13 | 241 | 1.6 | 3.2 | 0.00 | 1.22 | 1.22 | 88 | 1009.9 |
| 20260904054004 | 13 | 287 | 1.6 | 3.2 | 0.00 | 1.22 | 1.22 | 88 | 1009.9 |
| 20260904053004 | 13 | 236 | 0.0 | 3.2 | 0.00 | 1.22 | 1.22 | 89 | 1009.9 |
| 20260904052504 | 13 | 356 | 1.6 | 1.6 | 0.00 | 1.22 | 1.22 | 89 | 1010.0 |
| 20260904051504 | 13 | 0 | 0.0 | 0.0 | 0.00 | 1.22 | 1.22 | 89 | 1010.0 |
| 20260904051005 | 13 | 0 | 0.0 | 3.2 | 0.00 | 1.22 | 1.22 | 88 | 1010.1 |
| 20260904050504 | 13 | 0 | 1.6 | 3.2 | 0.00 | 1.22 | 1.22 | 88 | 1010.1 |
| 20260904050004 | 13 | 236 | 1.6 | 1.6 | 0.00 | 1.22 | 1.22 | 88 | 1010.0 |
| 20260904045504 | 13 | 236 | 1.6 | 3.2 | 0.00 | 1.22 | 1.22 | 88 | 1010.0 |
| 20260904044004 | 13 | 155 | 0.0 | 1.6 | 0.00 | 1.22 | 1.22 | 88 | 1010.0 |
| 20260904043503 | 13 | 155 | 0.0 | 1.6 | 0.00 | 1.22 | 1.22 | 88 | 1009.9 |
| 20260904043004 | 13 | 155 | 0.0 | 3.2 | 0.00 | 1.22 | 1.22 | 88 | 1010.0 |
| 20260904042504 | 13 | 155 | 1.6 | 3.2 | 0.00 | 1.22 | 1.22 | 88 | 1009.9 |
| 20260904042004 | 13 | 152 | 3.2 | 4.8 | 0.00 | 1.22 | 1.22 | 88 | 1009.9 |
| 20260904041504 | 13 | 173 | 0.0 | 3.2 | 0.00 | 1.22 | 1.22 | 87 | 1010.0 |
| 20260904041004 | 13 | 152 | 1.6 | 3.2 | 0.00 | 1.22 | 1.22 | 87 | 1010.0 |
| 20260904040504 | 13 | 0 | 0.0 | 1.6 | 0.00 | 1.22 | 1.22 | 87 | 1010.0 |
| 20260904040004 | 13 | 0 | 0.0 | 1.6 | 0.00 | 1.22 | 1.22 | 87 | 1010.0 |
| 20260904035504 | 13 | 236 | 1.6 | 3.2 | 0.00 | 1.22 | 1.22 | 87 | 1009.9 |
| 20260904034504 | 13 | 212 | 0.0 | 3.2 | 0.00 | 1.22 | 1.22 | 87 | 1009.8 |
| 20260904034004 | 13 | 0 | 0.0 | 3.2 | 0.00 | 1.22 | 1.22 | 86 | 1009.7 |
| 20260904033504 | 13 | 212 | 0.0 | 3.2 | 0.00 | 1.22 | 1.22 | 86 | 1009.7 |
| 20260904033004 | 13 | 212 | 0.0 | 3.2 | 0.00 | 1.22 | 1.22 | 86 | 1009.6 |
| 20260904032004 | 14 | 332 | 1.6 | 3.2 | 0.00 | 1.22 | 1.22 | 85 | 1009.5 |
| 20260904031504 | 14 | 325 | 0.0 | 3.2 | 0.00 | 1.22 | 1.22 | 85 | 1009.6 |
| 20260904030004 | 14 | 358 | 1.6 | 1.6 | 0.00 | 1.22 | 1.22 | 84 | 1009.4 |
| 20260904025504 | 14 | 357 | 0.0 | 3.2 | 0.00 | 1.22 | 1.22 | 84 | 1009.4 |
| 20260904025004 | 14 | 358 | 1.6 | 3.2 | 0.00 | 1.22 | 1.22 | 83 | 1009.4 |
| 20260904024504 | 14 | 330 | 3.2 | 4.8 | 0.00 | 1.22 | 1.22 | 82 | 1009.4 |
| 20260904024004 | 15 | 353 | 3.2 | 3.2 | 0.00 | 1.22 | 1.22 | 81 | 1009.3 |
| 20260904023504 | 15 | 218 | 1.6 | 8.0 | 0.00 | 1.22 | 1.22 | 81 | 1009.3 |
| 20260904022503 | 15 | 326 | 1.6 | 4.8 | 0.00 | 1.22 | 1.22 | 79 | 1009.1 |
| 20260904022004 | 15 | 355 | 3.2 | 8.0 | 0.00 | 1.22 | 1.22 | 79 | 1009.2 |
| 20260904021504 | 15 | 194 | 4.8 | 8.0 | 0.00 | 1.22 | 1.22 | 79 | 1009.2 |
| 20260904021004 | 15 | 187 | 3.2 | 8.0 | 0.00 | 1.22 | 1.22 | 77 | 1009.2 |
| 20260904020504 | 15 | 346 | 4.8 | 9.7 | 0.00 | 1.22 | 1.22 | 77 | 1009.2 |
| 20260904020004 | 15 | 199 | 1.6 | 8.0 | 0.00 | 1.22 | 1.22 | 77 | 1009.2 |
| 20260904015504 | 15 | 0 | 1.6 | 8.0 | 0.00 | 1.22 | 1.22 | 77 | 1009.2 |
| 20260904015004 | 15 | 47 | 4.8 | 9.7 | 0.00 | 1.22 | 1.22 | 76 | 1009.3 |
| 20260904014503 | 15 | 194 | 4.8 | 9.7 | 0.00 | 1.22 | 1.22 | 76 | 1009.2 |
| 20260904014004 | 15 | 182 | 4.8 | 9.7 | 0.00 | 1.22 | 1.22 | 76 | 1009.3 |
| 20260904013504 | 15 | 169 | 4.8 | 12.9 | 0.00 | 1.22 | 1.22 | 75 | 1009.2 |
| 20260904013004 | 15 | 183 | 4.8 | 12.9 | 0.00 | 1.22 | 1.22 | 75 | 1009.2 |
| 20260904012504 | 16 | 181 | 9.7 | 16.1 | 0.00 | 1.22 | 1.22 | 75 | 1009.2 |
| 20260904012004 | 16 | 170 | 8.0 | 12.9 | 0.00 | 1.22 | 1.22 | 75 | 1009.2 |
| 20260904011505 | 16 | 152 | 8.0 | 14.5 | 0.00 | 1.22 | 1.22 | 74 | 1009.2 |
| 20260904010505 | 16 | 181 | 6.4 | 11.3 | 0.00 | 1.24 | 1.22 | 73 | 1009.1 |
| 20260904010006 | 16 | 215 | 3.2 | 11.3 | 0.00 | 1.24 | 1.22 | 72 | 1009.0 |
| 20260904005505 | 16 | 15 | 8.0 | 12.9 | 0.00 | 1.24 | 1.22 | 71 | 1009.1 |
| 20260904004505 | 16 | 210 | 9.7 | 14.5 | 0.00 | 1.24 | 1.22 | 71 | 1009.1 |
| 20260904003505 | 16 | 251 | 8.0 | 16.1 | 0.00 | 1.24 | 1.22 | 71 | 1009.2 |
| 20260904003005 | 17 | 132 | 11.3 | 19.3 | 0.00 | 1.24 | 1.22 | 71 | 1009.2 |
| 20260904002505 | 17 | 184 | 11.3 | 19.3 | 0.00 | 1.24 | 1.22 | 69 | 1009.2 |
| 20260904002005 | 17 | 171 | 11.3 | 20.9 | 0.00 | 1.24 | 1.22 | 69 | 1009.2 |
| 20260904001505 | 17 | 0 | 16.1 | 22.5 | 0.00 | 1.24 | 1.22 | 69 | 1009.2 |
| 20260904001006 | 17 | 200 | 12.9 | 22.5 | 0.00 | 1.24 | 1.22 | 68 | 1009.1 |
| 20260904000505 | 17 | 174 | 11.3 | 22.5 | 0.00 | 1.24 | 1.22 | 68 | 1009.1 |
| 20260903235505 | 17 | 195 | 8.0 | 20.9 | 0.00 | 1.24 | 1.22 | 67 | 1009.1 |
| 20260903234505 | 17 | 218 | 4.8 | 14.5 | 0.00 | 1.24 | 1.22 | 71 | 1009.1 |
| 20260903234005 | 17 | 189 | 12.9 | 19.3 | 0.00 | 1.24 | 1.22 | 70 | 1009.1 |
| 20260903233505 | 17 | 204 | 11.3 | 16.1 | 0.00 | 1.24 | 1.22 | 72 | 1009.0 |
| 20260903233005 | 17 | 188 | 11.3 | 19.3 | 0.00 | 1.24 | 1.22 | 72 | 1009.2 |
| 20260903232505 | 17 | 186 | 11.3 | 24.1 | 0.00 | 1.24 | 1.22 | 71 | 1009.2 |
| 20260903232006 | 17 | 169 | 12.9 | 24.1 | 0.00 | 1.24 | 1.22 | 73 | 1009.3 |
| 20260903231506 | 16 | 207 | 12.9 | 27.4 | 0.00 | 1.24 | 1.22 | 71 | 1009.3 |
| 20260903231005 | 16 | 200 | 11.3 | 24.1 | 0.00 | 1.24 | 1.22 | 73 | 1009.4 |
| 20260903230005 | 16 | 179 | 14.5 | 24.1 | 0.00 | 1.24 | 1.22 | 75 | 1009.4 |
| 20260903225505 | 16 | 161 | 9.7 | 16.1 | 0.00 | 1.24 | 1.22 | 77 | 1009.5 |
| 20260903225005 | 15 | 164 | 16.1 | 24.1 | 0.00 | 1.24 | 1.22 | 77 | 1009.5 |
| 20260903224505 | 15 | 204 | 8.0 | 24.1 | 0.00 | 1.24 | 1.22 | 78 | 1009.6 |
| 20260903224005 | 15 | 199 | 14.5 | 22.5 | 0.00 | 1.24 | 1.22 | 78 | 1009.6 |
| 20260903223505 | 15 | 163 | 19.3 | 29.0 | 0.00 | 1.24 | 1.22 | 77 | 1009.6 |
| 20260903223005 | 15 | 161 | 12.9 | 20.9 | 0.00 | 1.24 | 1.22 | 79 | 1009.6 |
| 20260903222505 | 15 | 164 | 12.9 | 22.5 | 0.00 | 1.24 | 1.22 | 77 | 1009.6 |
| 20260903222004 | 16 | 187 | 8.0 | 22.5 | 0.00 | 1.24 | 1.22 | 77 | 1009.5 |
| 20260903221505 | 16 | 17 | 9.7 | 25.7 | 0.00 | 1.24 | 1.22 | 76 | 1009.3 |
| 20260903221005 | 16 | 174 | 14.5 | 24.1 | 0.00 | 1.27 | 1.22 | 75 | 1009.4 |
| 20260903220006 | 16 | 195 | 8.0 | 19.3 | 0.00 | 1.27 | 1.22 | 77 | 1009.3 |
| 20260903215506 | 16 | 174 | 12.9 | 27.4 | 0.00 | 1.27 | 1.22 | 78 | 1009.3 |
| 20260903215005 | 15 | 175 | 14.5 | 22.5 | 0.00 | 1.27 | 1.22 | 79 | 1009.3 |
| 20260903214005 | 15 | 17 | 12.9 | 25.7 | 0.03 | 1.27 | 1.22 | 81 | 1009.3 |
| 20260903213505 | 16 | 147 | 9.7 | 22.5 | 0.03 | 1.27 | 1.22 | 83 | 1009.3 |
| 20260903213005 | 15 | 120 | 14.5 | 22.5 | 0.03 | 1.30 | 1.22 | 83 | 1009.5 |
| 20260903212005 | 15 | 157 | 11.3 | 24.1 | 0.03 | 1.30 | 1.22 | 85 | 1009.6 |
| 20260903211506 | 15 | 0 | 16.1 | 25.7 | 0.03 | 1.30 | 1.22 | 85 | 1009.6 |
| 20260903211006 | 15 | 158 | 12.9 | 25.7 | 0.03 | 1.30 | 1.22 | 86 | 1009.6 |
| 20260903210505 | 15 | 155 | 14.5 | 29.0 | 0.05 | 1.30 | 1.22 | 86 | 1009.5 |
| 20260903210006 | 14 | 176 | 11.3 | 20.9 | 0.05 | 1.32 | 1.22 | 87 | 1009.5 |
| 20260903205505 | 14 | 190 | 14.5 | 22.5 | 0.05 | 1.32 | 1.22 | 87 | 1009.5 |
| 20260903205005 | 14 | 4 | 11.3 | 25.7 | 0.08 | 1.32 | 1.22 | 87 | 1009.6 |
| 20260903204505 | 15 | 181 | 14.5 | 25.7 | 0.05 | 1.30 | 1.19 | 88 | 1009.6 |
| 20260903204006 | 15 | 169 | 14.5 | 29.0 | 0.25 | 1.30 | 1.19 | 88 | 1009.4 |
| 20260903203505 | 15 | 178 | 9.7 | 14.5 | 0.30 | 1.30 | 1.19 | 89 | 1009.5 |
| 20260903203005 | 14 | 146 | 9.7 | 19.3 | 0.33 | 1.32 | 1.19 | 89 | 1009.5 |
| 20260903202504 | 14 | 201 | 6.4 | 16.1 | 0.36 | 1.32 | 1.19 | 89 | 1009.5 |
| 20260903202006 | 14 | 178 | 11.3 | 20.9 | 0.36 | 1.32 | 1.19 | 89 | 1009.5 |
| 20260903201505 | 14 | 175 | 9.7 | 24.1 | 0.36 | 1.32 | 1.19 | 89 | 1009.6 |
| 20260903201005 | 14 | 185 | 12.9 | 22.5 | 0.36 | 1.35 | 1.19 | 89 | 1009.5 |
| 20260903200006 | 14 | 167 | 6.4 | 19.3 | 0.36 | 1.32 | 1.17 | 89 | 1009.4 |
| 20260903195505 | 14 | 165 | 11.3 | 22.5 | 0.36 | 1.35 | 1.17 | 88 | 1009.4 |
| 20260903195005 | 14 | 174 | 14.5 | 27.4 | 0.33 | 1.32 | 1.14 | 87 | 1009.4 |
| 20260903194505 | 14 | 336 | 14.5 | 24.1 | 0.33 | 1.32 | 1.14 | 87 | 1009.4 |
| 20260903194005 | 14 | 0 | 14.5 | 24.1 | 0.13 | 1.12 | 0.94 | 87 | 1009.4 |
| 20260903193505 | 15 | 148 | 8.0 | 16.1 | 0.10 | 1.07 | 0.89 | 87 | 1009.3 |
| 20260903192005 | 15 | 177 | 4.8 | 11.3 | 0.08 | 1.04 | 0.84 | 88 | 1009.5 |
| 20260903191505 | 14 | 188 | 6.4 | 12.9 | 0.08 | 1.04 | 0.84 | 88 | 1009.6 |
| 20260903191005 | 14 | 152 | 9.7 | 16.1 | 0.08 | 1.04 | 0.84 | 88 | 1009.6 |
| 20260903190505 | 13 | 196 | 9.7 | 14.5 | 0.05 | 1.02 | 0.81 | 88 | 1009.6 |
| 20260903185505 | 13 | 261 | 1.6 | 3.2 | 0.05 | 1.09 | 0.81 | 88 | 1009.7 |
| 20260903185005 | 13 | 254 | 1.6 | 4.8 | 0.05 | 1.14 | 0.81 | 88 | 1009.7 |
| 20260903184505 | 13 | 294 | 3.2 | 9.7 | 0.05 | 1.14 | 0.81 | 87 | 1009.8 |